Погода Гышгы

Погода Гышгы : погода сейчас, прогноз погоды и архив. Всё, что Вы хотите узнать о погоде Гышгы!

Поиск расширенной информации на нашем сайте:

Другие новости

Новости СМИ2

Главная страница сайта

Новости сайта

03.07.2017

Напоминаем, что на нашем специализированном сайте Метеоцентр.Азия вы можете получить высокодетализированные автоматические прогнозы погоды по пунктам России, СНГ и мира в авиационном формате (включающие направление и скорость ветра, видимость, явления погоды, количество и форму облачности, нижнюю и верхнюю границу облачности).

Рекомендуем: Paprika паприка пицца вегетарианская pizza vegetariana.

Погода Гышгы - сегодня

Время (UTC), дата Ветер
(°,м/с) 
Видим.   Явления Облачность Т
(°С)
Тd
(°С)
f(%) Тe
(°С)
Pmin
(гПа)
dP
(гПа)
Po
(мм)
O2
(г/м3)
Тmin Tmax R s Состояние
почвы
00 19.11.17 210 (ЮЗ) 4000 м    ясно 
+0 -4.1 74 +1  1032.2  -0.4  716  289           
03 19.11.17 230 (ЮЗ) 4000 м    ясно 
-1.5 -5.1 76 -1  1033.1  0.4  717  291  -1.6        полностью
покрыта
пылью 
06 19.11.17 260 (З) 4000 м    3/0 верхняя 
[Ci sp]
+6.8 -0.5 60 +8  1030.2  -0.4             
09 19.11.17 050 (СВ) 4000 м    6/0 верхняя 
[Ci sp]
+14.9 +1.7 41 +16  1025.5  -2.4  714  273           
12 19.11.17 060 (СВ) 4000 м    3/0 верхняя 
[Ci sp]
+14.4 +0.6 39 +15  1024  -1.5  713  273           
15 19.11.17 тихо ()   4000 м    ясно 
+6.9 +0.3 63 +7  1026.1  0.1  713  280    +15.1       
18 19.11.17 240 (ЮЗ) 4000 м    ясно 
+4.2 -1.9 64 +5  1027.3  0.4  714  283    +15.1       
21 19.11.17 220 (ЮЗ) 4000 м    ясно 
+1.4 -3.1 72 +1  1027.5  -0.6  713  286           
00 20.11.17 220 (ЮЗ) 4000 м    ясно 
-0.8 -5 73 1028  -0.2  713  289           
03 20.11.17 260 (З) 4000 м    ясно 
-2.6 -6.1 77 -4  1028.3  -0.1  713  291           
06 20.11.17 230 (ЮЗ) 4000 м    ясно 
+8.4 -6.7 34 +8  1025  -0.2  713  279  -2.6         
09 20.11.17 330 (СЗ) 4000 м    3/0 верхняя 
[Ci sp]
+20.2 -8.2 14 +20  1019.2  -2.6  711  267           
12 20.11.17 250 (З) 4000 м    3/0 верхняя 
[Ci sp]
+21.6 -11.2 10 +22  1017.5  -1.2  710  266           
15 20.11.17 230 (ЮЗ) 4000 м    ясно 
+10.2 -4.7 35 +11  1021.5  0.9  711  276    +13.5  90    полностью
покрыта
пылью 
18 20.11.17 220 (ЮЗ) 4000 м    ясно 
+6.7 -5 43 +8  1022.7  0.3  711  280    +21.8       
21 20.11.17 210 (ЮЗ) 4000 м    ясно 
+3.6 -7.9 43 +4  1024  0.4  711  284           
00 21.11.17 250 (З) 4000 м    ясно 
+1.4 -8.7 47 +2  1024.6  -0.1  711  286           
03 21.11.17 230 (ЮЗ) 4000 м    4/0 верхняя 
[Ci fib]
+1.6 -8.9 46 +2  1024.1  -0.3  711  286           
06 21.11.17 210 (ЮЗ) 4000 м    ясно 
+14.5 -10.7 16 +16  1020.3  -0.3  711  273  +1.4         
09 21.11.17 220 (ЮЗ) 4000 м    ясно 
+24 -14.4 7 +24  1014.9  -2.9  709  263           
12 21.11.17 210 (ЮЗ) 4000 м    3/0 
+23 -15.7 6 +23  1014  -1.1  708  264           
15 21.11.17 280 (З) 4000 м    ясно 
+12.2 -5.7 28 +13  1017.7  0.8  708  274    +13      полностью
покрыта
пылью 
18 21.11.17 200 (Ю) 4000 м    ясно 
+8.3 -9 28 +9  1017.3  -1.1             
21 21.11.17 230 (ЮЗ) 4000 м    ясно 
+5.5 -7.5 39 +5  1017.3  -0.7  707  280           
00 22.11.17 тихо ()   4000 м    ясно 
+2 -7.7 49 +2  1017.2  -1  706  283           
Время (UTC), дата Ветер
(°,м/с) 
Видим.   Явления Облачность Т
(°С)
Тd
(°С)
f(%) Тe
(°С)
Pmin
(гПа)
dP
(гПа)
Po
(мм)
O2
(г/м3)
Тmin Tmax R s Состояние
почвы

Для получения пояснительной информации подведите курсор к названию столбца.

ПОГОДА Гышгы - архив

Всё, что Вы хотите узнать о погоде Гышгы - удобно и подробно!

Выберите нужную дату (начиная с 1 января 2015* года) и нажмите кнопку "Найти".
Будут отображены архивные сводки погоды по пункту Гышгы, начиная с указанной даты.


Отображать данные в формате CSV (для использования в таблицах Excel)


Внимание! Наш архив погоды предназначен исключительно для личного некоммерческого использования в познавательных целях. Если Вам необходимы официальные справки о состоянии погоды (для производственных, юридических, коммерческих и т.п. целей), обращайтесь в органы Росгидромета.

*Примечание: данная дата относится к архиву по метеостанциям СССР (Россия, СНГ, Балтия).
Архив по метеостанциям Зарубежной Европы и Азии (кроме Китая) хранится 10 дней, по другим регионам земного шара (Китай, Африка, Америка, Австралия, Океания) - 1 день.

Гышгы - район местоположения метеостанции


Название, широта, долгота, высота метеостанции:
Гышгы (Кушка) 35.3°ш. 62.3°д. 625 м над ур. моря [Туркменистан]

Дополнительная информация

В oтличие oт бoльшинства пoгoдных сайтoв мы публикуем пoдрoбную метеoинфoрмацию в детальнoм прoфессиoнальнoм фoрмате.

Характеристики температуры и влажнoсти вoздуха измеряются на высoте 2 м в тени вдали oт зданий и деревьев.
Скoрoсть ветра измеряется на высoте 10 м (на урoвне рoста челoвека скoрoсть ветра ниже в 1.5-2 раза). Если метеoстанция нахoдится в гoрoде или в лесу, тo скoрoсть ветра занижена на 2-4 м/с пo сравнению с oткрытым местoм. Скoрoсть ветра над акватoриями крупных рек и oзёр, а также на вершинах хoлмoв на 2-5 м/с выше, чем в oбычных услoвиях.
Атмoсфернoе давление в разных тoчках местнoсти мoжет значительнo oтличаться oт давления на метеoстанции, в зависимoсти oт услoвий рельефа (при пoдъёме на 10 м давление пoнижается примернo на 1 мм рт.ст.).